AMC-6

Last updated on Sun Jul 06 2025 00:02:42 GMT+0000 (Coordinated Universal Time)

1 26580U 00067A 25186.55183624 .00000105 00000+0 00000+0 0 9994 2 26580 0.0518 67.1078 0003732 37.7878 242.4945 1.00271337 90419
UTC large
Height (km)
Speed (km/s)
/
Latitude / Longitude
Inclination (degrees)
Orbital Period (minutes)
Azimuth
Elevation
Range (km)
Doppler Factor

Next 0 passes for location: London (51.5072 / 0.1276)

Sorry there are no passes over London.